Location: Shenandoah County Park
(38.9356°N, 78.4524°W)
Time: 00:02:08
(UTC-05:00)

Envisat - Pass Details

Date: 19 September 2025
Orbit: 761 x 762 km, 98.4° (Epoch: 08 December)

Event Time Altitude Azimuth Distance (km) Brightness Sun altitude
Rises 03:02:03 0° 27° (NNE) 3,233 7.0 -41.9°
Reaches altitude 10° 03:04:48 10° 41° (NE) 2,303 6.1 -41.6°
Enters shadow 03:06:07 16° 53° (NE) 1,933 5.6 -41.4°
